Home   Weather   Dryden   Past weeks

Flag for Canada Past Weather in Dryden, Ontario, Canada — Yesterday and Last 2 Weeks

39 °F

More clouds than sun.

Feels Like: 33 °F
Forecast: 33 / 41 °F
Wind: 9 mph from West

Location: Dryden Airport

Current Time: Oct 20, 2016 at 2:51:40 PM

Latest Report: Oct 20, 2016 at 2:00 PM

Visibility: 9 mi

Pressure: 30.32 "Hg

Humidity: 75%

Dew Point: 32 °F

Location of DrydenLocation

Past Weather in Dryden — Graph


Dryden Temperature Yesterday

Maximum temperature yesterday: 41 °F (at 3:00 PM)
Minimum temperature yesterday: 34 °F (at 8:59 AM)
Average temperature yesterday: 37 °F

High & Low Weather Summary for the Past Weeks

High63 °F (Oct 15, 3:00 PM)100% (Oct 7, 10:47 AM)30.42 "Hg (Oct 7, 10:47 AM)
Low28 °F (Oct 13, 5:00 AM)42% (Oct 15, 4:00 PM)29.46 "Hg (Oct 15, 7:00 AM)
Average42 °F83%29.94 "Hg
* Reported Oct 5 1:01 PM — Oct 20 1:00 PM, Dryden, Weather by CustomWeather, © 2016

Note: Actual official high and low records may vary slightly from our data, if they occured in-between our weather recording intervals... More about our weather records


Dryden Weather History for the Previous 24 Hours

Scroll right to see more
Time TempWeatherWind HumidityBarometerVisibility
1:00 PM
Thu, Oct 20
39 °FOvercast.5 mph75%30.33 "Hg9 mi
12:00 PM37 °FOvercast.2 mph81%30.34 "Hg9 mi
11:00 AM36 °FOvercast.6 mph87%30.34 "Hg9 mi
10:00 AM36 °FLow clouds.5 mph87%30.33 "Hg9 mi
9:04 AM34 °FMore clouds than sun.7 mph93%30.33 "Hg9 mi
8:00 AM34 °FOvercast.5 mph87%30.32 "Hg9 mi
7:00 AM34 °FOvercast.9 mph87%30.32 "Hg9 mi
6:00 AM34 °FLow clouds.6 mph93%30.31 "Hg9 mi
5:00 AM34 °FLow clouds.6 mph93%30.29 "Hg9 mi
4:00 AM34 °FMostly cloudy.7 mph100%30.28 "Hg9 mi
3:00 AM36 °FMostly cloudy.6 mph93%30.26 "Hg9 mi
2:52 AM36 °FMostly cloudy.6 mph93%30.26 "Hg9 mi
2:00 AM36 °FOvercast.6 mph93%30.25 "Hg9 mi
1:00 AM36 °FMostly cloudy.5 mph93%30.23 "Hg9 mi
12:00 AM36 °FMostly cloudy.5 mph93%30.23 "Hg9 mi
11:50 PM
Wed, Oct 19
36 °FLow clouds.5 mph93%30.23 "Hg9 mi
11:00 PM37 °FMostly cloudy.12 mph87%30.22 "Hg9 mi
10:00 PM37 °FMostly cloudy.10 mph81%30.22 "Hg9 mi
9:50 PM37 °FOvercast.9 mph81%30.22 "Hg9 mi
9:00 PM37 °FMostly cloudy.10 mph81%30.21 "Hg9 mi
8:58 PM37 °FMostly cloudy.10 mph81%30.20 "Hg9 mi
8:00 PM37 °FMostly cloudy.10 mph81%30.19 "Hg9 mi
7:00 PM37 °FMostly cloudy.13 mph75%30.18 "Hg9 mi
6:00 PM39 °FMostly cloudy.10 mph70%30.16 "Hg9 mi
5:00 PM39 °FOvercast.16 mph70%30.14 "Hg9 mi
4:00 PM41 °FMostly cloudy.16 mph61%30.11 "Hg9 mi
3:00 PM41 °FMostly cloudy.14 mph61%30.09 "Hg9 mi
2:00 PM39 °FCloudy.17 mph65%30.08 "Hg9 mi
Weather by CustomWeather, © 2016

See weather overviewHow to use our weather pages